Location: Albany
(35.0000°S, 118.0000°E)
Time: 05:06:33
(UTC-05:00)

ISS - All Passes

Search period start: 31 January 2015 00:00
Search period end: 10 February 2015 00:00
Orbit: 400 x 408 km, 51.6° (Epoch: 30 January)

Date Brightness Start Highest point End Pass type
(mag) Time Alt. Az. Time Alt. Az. Time Alt. Az.
31 Jan - 02:58:27 10° SW 03:01:42 51° SE 03:04:55 10° ENE daylight
31 Jan - 04:36:31 10° WNW 04:37:53 12° NW 04:39:06 10° NNW daylight
31 Jan - 19:35:40 10° NW 19:38:58 79° SW 19:42:19 10° SE daylight
31 Jan - 21:14:37 10° SW 21:15:58 12° SSW 21:17:14 10° S daylight
01 Feb - 02:06:25 10° SSW 02:09:17 27° SE 02:12:10 10° E daylight
01 Feb - 03:42:57 10° WSW 03:45:43 24° NW 03:48:26 10° N daylight
01 Feb - 18:43:31 10° NNW 18:46:42 45° NE 18:49:54 10° ESE daylight
01 Feb - 20:20:57 10° WSW 20:23:22 18° SSW 20:25:45 10° SSE daylight
02 Feb - 01:14:34 10° SSW 01:16:46 16° SSE 01:18:59 10° ESE daylight
02 Feb - 02:50:15 10° WSW 02:53:29 54° NW 02:56:42 10° NNE daylight
02 Feb - 17:51:53 10° N 17:54:27 21° NE 17:57:05 10° ESE daylight
02 Feb - 19:27:50 10° W 19:30:50 30° SW 19:33:50 10° SSE daylight
03 Feb - 00:23:15 10° S 00:24:06 11° SSE 00:25:03 10° SE daylight
03 Feb - 01:57:52 10° SW 02:01:09 67° SE 02:04:25 10° NE daylight
03 Feb - 17:01:51 10° NE 17:02:13 10° NE 17:02:46 10° ENE daylight
03 Feb - 18:35:05 10° WNW 18:38:21 60° SW 18:41:40 10° SE daylight
03 Feb - 20:14:51 10° SSW 20:15:27 10° SSW 20:15:58 10° SSW daylight
04 Feb - 01:05:39 10° SSW 01:08:42 33° SE 01:11:43 10° ENE daylight
04 Feb - 02:42:34 10° W 02:45:02 19° NW 02:47:24 10° N daylight
04 Feb - 17:42:42 10° NW 17:45:57 61° NE 17:49:15 10° SE daylight
04 Feb - 19:20:35 10° WSW 19:22:44 16° SSW 19:24:49 10° S daylight
05 Feb - 00:13:38 10° SSW 00:16:06 19° SSE 00:18:35 10° E daylight
05 Feb - 01:49:35 10° WSW 01:52:43 40° NW 01:55:48 10° NNE daylight
05 Feb - 16:50:45 10° N 16:53:36 27° NE 16:56:30 10° ESE daylight
05 Feb - 18:27:13 10° W 18:30:03 25° SW 18:32:54 10° SSE daylight
05 Feb - 23:21:56 10° S 23:23:23 12° SSE 23:24:54 10° SE daylight
06 Feb - 00:57:00 10° SW 01:00:19 87° SE 01:03:36 10° NE daylight
06 Feb - 15:59:40 10° NNE 16:01:16 13° NE 16:02:59 10° E visible
06 Feb - 17:34:15 10° WNW 17:37:28 47° SW 17:40:42 10° SE daylight
07 Feb - 00:04:37 10° SW 00:07:47 40° SE 00:10:55 10° ENE daylight
07 Feb - 01:42:00 10° W 01:44:02 15° NW 01:45:57 10° NNW daylight
07 Feb - 16:41:37 10° NW 16:44:56 80° NE 16:48:16 10° SE daylight
07 Feb - 18:19:59 10° WSW 18:21:48 14° SSW 18:23:33 10° S daylight
07 Feb - 23:12:26 10° SSW 23:15:08 23° SSE 23:17:51 10° E daylight
08 Feb - 00:48:39 10° WSW 00:51:39 31° NW 00:54:35 10° NNE daylight
08 Feb - 15:49:25 10° NNW 15:52:28 35° NE 15:55:33 10° ESE visible
08 Feb - 17:26:21 10° W 17:29:00 21° SSW 17:31:38 10° SSE daylight
08 Feb - 22:20:29 10° S 22:22:20 14° SSE 22:24:16 10° ESE daylight
08 Feb - 23:55:52 10° SW 23:59:10 72° NW 00:02:26 10° NE daylight
09 Feb - 14:57:51 10° N 15:00:01 17° NE 15:02:16 10° E visible
09 Feb - 16:33:09 10° WNW 16:36:17 37° SW 16:39:26 10° SSE daylight
09 Feb - 23:03:20 10° SW 23:06:35 51° SE 23:09:48 10° ENE daylight
